User: anonymous   Login
Location: Unspecified
(0.0000°N, 0.0000°E)
Time: 09:58:55
(UTC+00:00)
Language:

Aussat K3 - Orbit

View from above orbital plane
View from above orbital plane
View from above satellite
View from above satellite

Ground track
Ground track

The orbit data is extracted from the following two-line orbital elements,

1 18350U 87078A   14327.00583928 -.00000236  00000-0  00000+0 0  1914
2 18350 013.8806 028.1210 0005353 241.1568 135.7652 00.98908584 98740
Epoch (UTC): 23 November 2014 00:08:24
Eccentricity: 0.0005353
inclination: 13.8806°
perigee height: 36150 km
apogee height: 36195 km
right ascension of ascending node: 28.1210°
argument of perigee: 241.1568°
revolutions per day: 0.98908584
mean anomaly at epoch: 135.7652°
orbit number at epoch: 9874

The dashed part of the orbit path shows where the satellite is in the earth's shadow,  

DLR